User: anonymous   Login
Location: Unspecified
(0.0000°N, 0.0000°E)
Time: 02:26:02
(UTC+00:00)
Language:

USA 105 - Orbit

View from above orbital plane
View from above orbital plane
View from above satellite
View from above satellite

Ground track
Ground track

The orbit data is extracted from the following two-line orbital elements,

1 23223U 94054A   19263.95694621 0.00000000  00000-0  00000-0 0    00
2 23223  11.7048  27.4797 0034972 161.1514 198.9926  1.00270000    09
Epoch (UTC): 20 September 2019 22:58:00
Eccentricity: 0.0034972
inclination: 11.7048°
perigee height: 35639 km
apogee height: 35934 km
right ascension of ascending node: 27.4797°
argument of perigee: 161.1514°
revolutions per day: 1.00270000
mean anomaly at epoch: 198.9926°
orbit number at epoch: 0

The dashed part of the orbit path shows where the satellite is in the earth's shadow,  

DLR